Delta Pride — DSNG6 — position and weather

sailwx.info

Track history (hours):
 
Tides and Currents Weather Stations Pressure Air Temp Water Temp Dewpoint Dewpoint Depression Visibility Wind Speed Wind Dir Waves Ship Positions

Delta Pride

Last reported at 2014-Oct-23 15:25 UTC. Time now 2014-Oct-25 12:04 UTC.
Position N 38°03' W 121°54'.

Length 186 m; draft 9.3 m.

Type: Cargo ship. MMSI: 441339000.

Date/timePositionNaut miles runAvg speedWind from/ knotsBaromVisibWave heightAir tempDewpointWater temp
2014-Oct-23 15:25N 38°03' W 121°54'7 8.2
2014-Oct-23 14:31N 38°04' W 122°03'7 6.8
2014-Oct-23 13:31N 38°03' W 122°11'8 8.4
2014-Oct-23 12:33N 38°02' W 122°22'9 8.6
2014-Oct-23 11:33N 37°55' W 122°27'6 5.7
2014-Oct-23 10:33N 37°49' W 122°28'9 9.4
2014-Oct-23 09:33N 37°45' W 122°39'1010.0
2014-Oct-23 08:33N 37°39' W 122°49'1111.3
2014-Oct-23 07:33N 37°33' W 123°01'1110.5
2014-Oct-23 06:33N 37°32' W 123°14'1111.1
2014-Oct-23 05:32N 37°32' W 123°28'1411.1
2014-Oct-23 04:15N 37°35' W 123°46'7 7.9
2014-Oct-23 03:22N 37°37' W 123°54'1 1.2
2014-Oct-23 02:28N 37°38' W 123°55'1 1.2
2014-Oct-23 01:21N 37°39' W 123°57'4 1.2
2014-Oct-22 22:04N 37°41' W 124°00'3 1.2
2014-Oct-22 19:33N 37°43' W 124°03'1 1.1
2014-Oct-22 18:24N 37°44' W 124°05'1 1.1
2014-Oct-22 17:23N 37°44' W 124°06'1 1.1
2014-Oct-22 16:33N 37°45' W 124°07'16 6.8
2014-Oct-22 14:08N 37°53' W 124°24'  
Track history (hours):
 
Tides and Currents Weather Stations Pressure Air Temp Water Temp Dewpoint Dewpoint Depression Visibility Wind Speed Wind Dir Waves Ship Positions

Delta Pride

Last reported at 2014-Oct-23 15:25 UTC. Time now 2014-Oct-25 12:04 UTC.
Position N 38°03' W 121°54'.

Length 186 m; draft 9.3 m.

Type: Cargo ship. MMSI: 441339000.

Date/timePositionNaut miles runAvg speedWind from/ knotsBaromVisibWave heightAir tempDewpointWater temp
2014-Oct-23 15:25N 38°03' W 121°54'7 8.2
2014-Oct-23 14:31N 38°04' W 122°03'7 6.8
2014-Oct-23 13:31N 38°03' W 122°11'8 8.4
2014-Oct-23 12:33N 38°02' W 122°22'9 8.6
2014-Oct-23 11:33N 37°55' W 122°27'6 5.7
2014-Oct-23 10:33N 37°49' W 122°28'9 9.4
2014-Oct-23 09:33N 37°45' W 122°39'1010.0
2014-Oct-23 08:33N 37°39' W 122°49'1111.3
2014-Oct-23 07:33N 37°33' W 123°01'1110.5
2014-Oct-23 06:33N 37°32' W 123°14'1111.1
2014-Oct-23 05:32N 37°32' W 123°28'1411.1
2014-Oct-23 04:15N 37°35' W 123°46'7 7.9
2014-Oct-23 03:22N 37°37' W 123°54'1 1.2
2014-Oct-23 02:28N 37°38' W 123°55'1 1.2
2014-Oct-23 01:21N 37°39' W 123°57'4 1.2
2014-Oct-22 22:04N 37°41' W 124°00'3 1.2
2014-Oct-22 19:33N 37°43' W 124°03'1 1.1
2014-Oct-22 18:24N 37°44' W 124°05'1 1.1
2014-Oct-22 17:23N 37°44' W 124°06'1 1.1
2014-Oct-22 16:33N 37°45' W 124°07'16 6.8
2014-Oct-22 14:08N 37°53' W 124°24'  

Dump ship's entire track history